Location: Rometta
(44.2000°N, 10.0500°E)
Time: 12:43:27
(UTC+00:00)

USA 267 - Pass Details

Date: 20 January 2021
Orbit: 1099 x 1108 km, 123.0° (Epoch: 06 March)

Event Time Altitude Azimuth Distance (km) Brightness Sun altitude
Exits shadow 18:04:19 31° 93° (E) 1,832 3.9 -19.6°
Maximum altitude 18:06:22 38° 129° (SE) 1,623 3.8 -20.0°
Drops below altitude 10° 18:12:20 10° 196° (SSW) 2,952 5.8 -21.0°
Sets 18:15:01 0° 204° (SSW) 3,908 6.6 -21.5°
